| time (UTC) | temp F | wind direction | speed MPH | gust MPH | rain 1hr in | rain 24hr in | rain mn in | humidity % | barometer mb |
| 20260505011508 | 62 | 13 | 6.0 | 20.0 | 0.00 | 0.00 | 0.00 | 42 | 1005.7 |
| 20260505011003 | 62 | 26 | 5.0 | 17.0 | 0.00 | 0.00 | 0.00 | 42 | 1005.8 |
| 20260505010504 | 62 | 26 | 6.0 | 18.0 | 0.00 | 0.00 | 0.00 | 41 | 1005.7 |
| 20260505010009 | 63 | 16 | 6.0 | 18.0 | 0.00 | 0.00 | 0.00 | 41 | 1005.7 |
| 20260505005503 | 64 | 11 | 7.0 | 18.0 | 0.00 | 0.00 | 0.00 | 40 | 1005.6 |
| 20260505005004 | 64 | 14 | 7.0 | 17.0 | 0.00 | 0.00 | 0.00 | 39 | 1005.4 |
| 20260505004004 | 65 | 13 | 4.0 | 15.0 | 0.00 | 0.00 | 0.00 | 38 | 1005.4 |
| 20260505003503 | 66 | 14 | 4.0 | 15.0 | 0.00 | 0.00 | 0.00 | 38 | 1005.2 |
| 20260505003008 | 66 | 16 | 6.0 | 18.0 | 0.00 | 0.00 | 0.00 | 38 | 1005.2 |
| 20260505002505 | 67 | 16 | 8.0 | 19.0 | 0.00 | 0.00 | 0.00 | 37 | 1005.0 |
| 20260505002004 | 68 | 18 | 7.0 | 19.0 | 0.00 | 0.00 | 0.00 | 37 | 1004.9 |
| 20260505001508 | 68 | 14 | 7.0 | 20.0 | 0.00 | 0.00 | 0.00 | 37 | 1004.7 |
| 20260505001004 | 69 | 9 | 7.0 | 20.0 | 0.00 | 0.00 | 0.00 | 36 | 1004.8 |
| 20260505000503 | 69 | 9 | 6.0 | 14.0 | 0.00 | 0.00 | 0.00 | 36 | 1004.7 |
| 20260505000008 | 69 | 8 | 5.0 | 14.0 | 0.00 | 0.00 | 0.00 | 36 | 1004.5 |
| 20260504235505 | 69 | 7 | 5.0 | 11.0 | 0.00 | 0.00 | 0.00 | 37 | 1004.4 |
| 20260504235003 | 70 | 15 | 5.0 | 12.0 | 0.00 | 0.00 | 0.00 | 37 | 1004.4 |
| 20260504234509 | 70 | 24 | 5.0 | 13.0 | 0.00 | 0.00 | 0.00 | 36 | 1004.5 |
| 20260504234003 | 70 | 23 | 5.0 | 16.0 | 0.00 | 0.00 | 0.00 | 36 | 1004.4 |
| 20260504233505 | 70 | 17 | 5.0 | 16.0 | 0.00 | 0.00 | 0.00 | 35 | 1004.4 |
| 20260504233008 | 70 | 11 | 6.0 | 17.0 | 0.00 | 0.00 | 0.00 | 35 | 1004.4 |
| 20260504232503 | 71 | 15 | 7.0 | 17.0 | 0.00 | 0.00 | 0.00 | 35 | 1004.2 |
| 20260504232004 | 71 | 22 | 5.0 | 14.0 | 0.00 | 0.00 | 0.00 | 34 | 1004.1 |
| 20260504231507 | 72 | 22 | 4.0 | 13.0 | 0.00 | 0.00 | 0.00 | 34 | 1004.0 |
| 20260504231004 | 72 | 11 | 4.0 | 12.0 | 0.00 | 0.00 | 0.00 | 34 | 1004.0 |
| 20260504230503 | 73 | 5 | 4.0 | 12.0 | 0.00 | 0.00 | 0.00 | 34 | 1004.0 |
| 20260504230008 | 73 | 20 | 5.0 | 12.0 | 0.00 | 0.00 | 0.00 | 33 | 1003.8 |
| 20260504225504 | 73 | 14 | 5.0 | 13.0 | 0.00 | 0.00 | 0.00 | 34 | 1003.5 |
| 20260504225004 | 73 | 2 | 5.0 | 16.0 | 0.00 | 0.00 | 0.00 | 34 | 1003.4 |
| 20260504224004 | 74 | 13 | 5.0 | 14.0 | 0.00 | 0.00 | 0.00 | 34 | 1003.3 |
| 20260504223504 | 74 | 11 | 5.0 | 14.0 | 0.00 | 0.00 | 0.00 | 33 | 1003.2 |
| 20260504223008 | 74 | 20 | 5.0 | 15.0 | 0.00 | 0.00 | 0.00 | 33 | 1003.1 |
| 20260504222003 | 75 | 18 | 4.0 | 15.0 | 0.00 | 0.00 | 0.00 | 33 | 1002.9 |
| 20260504221508 | 76 | 10 | 4.0 | 15.0 | 0.00 | 0.00 | 0.00 | 33 | 1002.7 |
| 20260504221003 | 76 | 17 | 5.0 | 15.0 | 0.00 | 0.00 | 0.00 | 34 | 1002.6 |
| 20260504220504 | 76 | 20 | 4.0 | 15.0 | 0.00 | 0.00 | 0.00 | 32 | 1002.6 |
| 20260504220009 | 76 | 14 | 4.0 | 13.0 | 0.00 | 0.00 | 0.00 | 32 | 1002.4 |
| 20260504214508 | 77 | 11 | 4.0 | 14.0 | 0.00 | 0.00 | 0.00 | 32 | 1002.4 |
| 20260504214003 | 77 | 7 | 5.0 | 14.0 | 0.00 | 0.00 | 0.00 | 32 | 1002.4 |
| 20260504213503 | 77 | 1 | 5.0 | 13.0 | 0.00 | 0.00 | 0.00 | 33 | 1002.4 |
| 20260504213008 | 77 | 354 | 4.0 | 13.0 | 0.00 | 0.00 | 0.00 | 32 | 1002.4 |
| 20260504212505 | 78 | 11 | 4.0 | 12.0 | 0.00 | 0.00 | 0.00 | 33 | 1002.2 |
| 20260504212003 | 78 | 13 | 4.0 | 13.0 | 0.00 | 0.00 | 0.00 | 33 | 1002.1 |
| 20260504211508 | 78 | 17 | 4.0 | 13.0 | 0.00 | 0.00 | 0.00 | 33 | 1002.0 |
| 20260504211003 | 78 | 27 | 3.0 | 10.0 | 0.00 | 0.00 | 0.00 | 35 | 1002.0 |
| 20260504210505 | 78 | 19 | 4.0 | 11.0 | 0.00 | 0.00 | 0.00 | 36 | 1002.1 |
| 20260504210008 | 78 | 21 | 4.0 | 11.0 | 0.00 | 0.00 | 0.00 | 34 | 1002.0 |
| 20260504205504 | 79 | 21 | 3.0 | 9.0 | 0.00 | 0.00 | 0.00 | 35 | 1002.1 |
| 20260504205004 | 79 | 20 | 3.0 | 9.0 | 0.00 | 0.00 | 0.00 | 37 | 1002.0 |
| 20260504204508 | 79 | 356 | 5.0 | 13.0 | 0.00 | 0.00 | 0.00 | 40 | 1002.0 |
| 20260504204004 | 78 | 350 | 5.0 | 13.0 | 0.00 | 0.00 | 0.00 | 35 | 1002.1 |
| 20260504203504 | 79 | 5 | 4.0 | 11.0 | 0.00 | 0.00 | 0.00 | 37 | 1002.0 |
| 20260504203008 | 79 | 7 | 3.0 | 11.0 | 0.00 | 0.00 | 0.00 | 37 | 1002.0 |
| 20260504202504 | 79 | 350 | 3.0 | 10.0 | 0.00 | 0.00 | 0.00 | 37 | 1002.0 |
| 20260504201507 | 79 | 20 | 4.0 | 14.0 | 0.00 | 0.00 | 0.00 | 37 | 1002.0 |
| 20260504201004 | 79 | 7 | 4.0 | 14.0 | 0.00 | 0.00 | 0.00 | 36 | 1002.0 |
| 20260504200503 | 80 | 349 | 3.0 | 10.0 | 0.00 | 0.00 | 0.00 | 37 | 1001.9 |
| 20260504200008 | 80 | 344 | 4.0 | 10.0 | 0.00 | 0.00 | 0.00 | 36 | 1001.8 |
| 20260504195503 | 79 | 4 | 4.0 | 16.0 | 0.00 | 0.00 | 0.00 | 38 | 1001.9 |
| 20260504195004 | 80 | 359 | 4.0 | 16.0 | 0.00 | 0.00 | 0.00 | 38 | 1001.9 |
| 20260504194507 | 80 | 318 | 4.0 | 10.0 | 0.00 | 0.00 | 0.00 | 39 | 1001.7 |
| 20260504194004 | 80 | 324 | 4.0 | 10.0 | 0.00 | 0.00 | 0.00 | 37 | 1001.7 |
| 20260504193503 | 80 | 342 | 4.0 | 10.0 | 0.00 | 0.00 | 0.00 | 39 | 1001.7 |
| 20260504193008 | 80 | 335 | 4.0 | 10.0 | 0.00 | 0.00 | 0.00 | 36 | 1001.7 |
| 20260504191003 | 81 | 330 | 3.0 | 14.0 | 0.00 | 0.00 | 0.00 | 36 | 1001.6 |
| 20260504190504 | 82 | 345 | 3.0 | 14.0 | 0.00 | 0.00 | 0.00 | 36 | 1001.6 |
| 20260504190008 | 81 | 3 | 4.0 | 10.0 | 0.00 | 0.00 | 0.00 | 36 | 1001.6 |
| 20260504185003 | 81 | 345 | 3.0 | 12.0 | 0.00 | 0.00 | 0.00 | 35 | 1001.3 |
| 20260504184508 | 81 | 343 | 3.0 | 10.0 | 0.00 | 0.00 | 0.00 | 34 | 1001.3 |
| 20260504183503 | 81 | 322 | 4.0 | 14.0 | 0.00 | 0.00 | 0.00 | 34 | 1001.2 |
| 20260504183008 | 82 | 303 | 3.0 | 14.0 | 0.00 | 0.00 | 0.00 | 34 | 1001.3 |
| 20260504182504 | 82 | 308 | 4.0 | 14.0 | 0.00 | 0.00 | 0.00 | 33 | 1001.2 |
| 20260504181507 | 81 | 320 | 4.0 | 13.0 | 0.00 | 0.00 | 0.00 | 33 | 1001.2 |
| 20260504181004 | 82 | 319 | 3.0 | 11.0 | 0.00 | 0.00 | 0.00 | 33 | 1001.2 |
| 20260504180503 | 82 | 339 | 3.0 | 11.0 | 0.00 | 0.00 | 0.00 | 34 | 1001.2 |
| 20260504180008 | 82 | 346 | 3.0 | 12.0 | 0.00 | 0.00 | 0.00 | 34 | 1001.3 |
| 20260504175504 | 82 | 342 | 2.0 | 12.0 | 0.00 | 0.00 | 0.00 | 34 | 1001.3 |
| 20260504175004 | 81 | 290 | 2.0 | 10.0 | 0.00 | 0.00 | 0.00 | 36 | 1001.4 |
| 20260504174508 | 81 | 292 | 3.0 | 11.0 | 0.00 | 0.00 | 0.00 | 34 | 1001.4 |
| 20260504174003 | 80 | 293 | 3.0 | 11.0 | 0.00 | 0.00 | 0.00 | 35 | 1001.6 |
| 20260504173007 | 80 | 310 | 3.0 | 9.0 | 0.00 | 0.00 | 0.00 | 37 | 1001.6 |
| 20260504172503 | 80 | 314 | 3.0 | 10.0 | 0.00 | 0.00 | 0.00 | 37 | 1001.7 |
| 20260504172003 | 79 | 317 | 3.0 | 10.0 | 0.00 | 0.00 | 0.00 | 35 | 1001.6 |
| 20260504171507 | 79 | 322 | 5.0 | 13.0 | 0.00 | 0.00 | 0.00 | 36 | 1001.5 |
| 20260504171003 | 79 | 324 | 5.0 | 14.0 | 0.00 | 0.00 | 0.00 | 37 | 1001.6 |
| 20260504170504 | 79 | 317 | 3.0 | 14.0 | 0.00 | 0.00 | 0.00 | 36 | 1001.7 |
| 20260504151003 | 68 | 292 | 1.0 | 5.0 | 0.00 | 0.00 | 0.00 | 51 | 1001.8 |
| 20260504150504 | 68 | 276 | 1.0 | 5.0 | 0.00 | 0.00 | 0.00 | 52 | 1001.8 |
| 20260504141003 | 62 | 343 | 1.0 | 3.0 | 0.00 | 0.00 | 0.00 | 60 | 1002.3 |
| 20260504140504 | 62 | 316 | 2.0 | 6.0 | 0.00 | 0.00 | 0.00 | 60 | 1002.2 |
| 20260504130503 | 55 | 309 | 1.0 | 3.0 | 0.00 | 0.00 | 0.00 | 74 | 1002.4 |
| 20260504110503 | 48 | 184 | 0.0 | 1.0 | 0.00 | 0.00 | 0.00 | 84 | 1002.0 |
| 20260504100504 | 47 | 0 | 0.0 | 0.0 | 0.00 | 0.00 | 0.00 | 85 | 1002.1 |
| 20260504082003 | 49 | 0 | 0.0 | 0.0 | 0.00 | 0.00 | 0.00 | 82 | 1003.2 |
| 20260504081507 | 49 | 0 | 0.0 | 0.0 | 0.00 | 0.00 | 0.00 | 82 | 1003.3 |
| 20260504081003 | 49 | 0 | 0.0 | 0.0 | 0.00 | 0.00 | 0.00 | 81 | 1003.4 |
| 20260504080503 | 49 | 0 | 0.0 | 0.0 | 0.00 | 0.00 | 0.00 | 81 | 1003.5 |
| 20260504050503 | 54 | 0 | 0.0 | 0.0 | 0.00 | 0.00 | 0.00 | 73 | 1006.1 |
| 20260504050010 | 54 | 0 | 0.0 | 0.0 | 0.00 | 0.00 | 0.00 | 72 | 1006.1 |
| 20260504045504 | 55 | 0 | 0.0 | 0.0 | 0.00 | 0.00 | 0.00 | 71 | 1006.0 |
| 20260504045003 | 55 | 0 | 0.0 | 0.0 | 0.00 | 0.00 | 0.00 | 71 | 1006.2 |
| 20260504044508 | 55 | 0 | 0.0 | 0.0 | 0.00 | 0.00 | 0.00 | 71 | 1006.1 |
| 20260504044003 | 55 | 0 | 0.0 | 0.0 | 0.00 | 0.00 | 0.00 | 70 | 1006.1 |
| 20260504043504 | 56 | 0 | 0.0 | 0.0 | 0.00 | 0.00 | 0.00 | 69 | 1006.3 |
| 20260504043007 | 56 | 0 | 0.0 | 0.0 | 0.00 | 0.00 | 0.00 | 69 | 1006.3 |
| 20260504042503 | 56 | 0 | 0.0 | 0.0 | 0.00 | 0.00 | 0.00 | 68 | 1006.2 |
| 20260504041003 | 57 | 0 | 0.0 | 0.0 | 0.00 | 0.00 | 0.00 | 67 | 1006.4 |
| 20260504040504 | 57 | 0 | 0.0 | 0.0 | 0.00 | 0.00 | 0.00 | 67 | 1006.4 |
| 20260504040009 | 57 | 0 | 0.0 | 0.0 | 0.00 | 0.00 | 0.00 | 64 | 1006.5 |
| 20260504035503 | 58 | 0 | 0.0 | 0.0 | 0.00 | 0.00 | 0.00 | 66 | 1006.7 |
| 20260504035003 | 58 | 0 | 0.0 | 0.0 | 0.00 | 0.00 | 0.00 | 63 | 1006.7 |
| 20260504034508 | 58 | 0 | 0.0 | 0.0 | 0.00 | 0.00 | 0.00 | 64 | 1006.7 |
| 20260504033008 | 60 | 0 | 0.0 | 0.0 | 0.00 | 0.00 | 0.00 | 63 | 1006.9 |
| 20260504032004 | 60 | 0 | 0.0 | 0.0 | 0.00 | 0.00 | 0.00 | 61 | 1006.9 |
| 20260504030504 | 61 | 0 | 0.0 | 0.0 | 0.00 | 0.00 | 0.00 | 59 | 1007.0 |
| 20260504025504 | 61 | 0 | 0.0 | 0.0 | 0.00 | 0.00 | 0.00 | 58 | 1007.0 |
| 20260504025003 | 62 | 0 | 0.0 | 0.0 | 0.00 | 0.00 | 0.00 | 59 | 1007.1 |
| 20260504024507 | 62 | 0 | 0.0 | 0.0 | 0.00 | 0.00 | 0.00 | 58 | 1007.0 |
| 20260504024004 | 62 | 0 | 0.0 | 0.0 | 0.00 | 0.00 | 0.00 | 58 | 1007.1 |
| 20260504023503 | 62 | 0 | 0.0 | 0.0 | 0.00 | 0.00 | 0.00 | 56 | 1007.1 |
| 20260504023008 | 62 | 0 | 0.0 | 0.0 | 0.00 | 0.00 | 0.00 | 56 | 1007.1 |
| 20260504022503 | 62 | 0 | 0.0 | 0.0 | 0.00 | 0.00 | 0.00 | 57 | 1007.1 |
| 20260504021508 | 63 | 0 | 0.0 | 0.0 | 0.00 | 0.00 | 0.00 | 55 | 1007.1 |
| 20260504021005 | 63 | 0 | 0.0 | 0.0 | 0.00 | 0.00 | 0.00 | 55 | 1007.2 |
| 20260504020503 | 64 | 0 | 0.0 | 0.0 | 0.00 | 0.00 | 0.00 | 55 | 1007.2 |
| 20260504020008 | 64 | 0 | 0.0 | 0.0 | 0.00 | 0.00 | 0.00 | 54 | 1007.3 |
| 20260504015503 | 64 | 0 | 0.0 | 0.0 | 0.00 | 0.00 | 0.00 | 53 | 1007.4 |
| 20260504015003 | 65 | 0 | 0.0 | 0.0 | 0.00 | 0.00 | 0.00 | 52 | 1007.4 |
| 20260504014508 | 66 | 0 | 0.0 | 0.0 | 0.00 | 0.00 | 0.00 | 51 | 1007.4 |
| 20260504013503 | 67 | 0 | 0.0 | 0.0 | 0.00 | 0.00 | 0.00 | 49 | 1007.4 |
| 20260504013008 | 68 | 0 | 0.0 | 0.0 | 0.00 | 0.00 | 0.00 | 47 | 1007.4 |
| 20260504012504 | 68 | 0 | 0.0 | 0.0 | 0.00 | 0.00 | 0.00 | 47 | 1007.4 |
| 20260504012003 | 69 | 0 | 0.0 | 0.0 | 0.00 | 0.00 | 0.00 | 46 | 1007.3 |